Location: Worth Mountain WMA
(34.9569°N, 81.4819°W)
Time: 18:15:49
(UTC-04:00)

Cosmos 1932 - Pass Details

Date: 18 August 2017
Orbit: 922 x 1007 km, 65.0° (Epoch: 21 September)

Event Time Altitude Azimuth Distance (km) Brightness Sun altitude
Rises 22:33:38 0° 332° (NNW) 3,723 8.6 -26.7°
Reaches altitude 10° 22:36:15 10° 335° (NNW) 2,762 7.7 -27.1°
Maximum altitude 22:42:44 74° 60° (ENE) 1,016 4.4 -28.1°
Enters shadow 22:43:04 73° 87° (E) 1,023 4.4 -28.1°
